Regional Weather Roundup
Issued by NWS

Home | Current Version | Previous Version | Text Only | Print | Product List | Glossary On
Versions: 1 2 3 4 5 6 7 8 9 10 11 12 13 14 15 16 17 18 19 20 21 22 23 24 25 26 27 28 29 30 31 32 33 34 35 36 37 38 39 40 41 42 43 44 45 46 47 48 49 50
000
ASUS43 KBIS 260410
RWRND

NORTH DAKOTA REGIONAL WEATHER ROUNDUP
NATIONAL WEATHER SERVICE BISMARCK ND
1100 PM CDT TUE APR 25 2017

NOTE: "FAIR" INDICATES FEW OR NO CLOUDS BELOW 12,000 FEET WITH NO
SIGNIFICANT WEATHER AND/OR OBSTRUCTIONS TO VISIBILITY.


NDZ001>003-009>011-017-260500-
NORTHWEST NORTH DAKOTA

CITY           SKY/WX    TMP DP  RH WIND       PRES   REMARKS
WILLISTON      CLOUDY    37  26  64 N7        29.99R
MINOT          CLOUDY    35  26  69 N7        29.97R
MINOT AFB      CLOUDY    35  25  68 NE15      29.97R
$$

NDZ018>021-031>035-040>046-260500-
SOUTHWEST NORTH DAKOTA

CITY           SKY/WX    TMP DP  RH WIND       PRES   REMARKS
BISMARCK       CLOUDY    36  28  73 N12       29.92S
DICKINSON      CLOUDY    31  24  75 NW7       29.92R
GARRISON         N/A     34  25  69 NE7       29.95R
HETTINGER ARPT CLOUDY    31  25  78 N10       29.93S
$$

NDZ004>008-012>016-024-026-027-054-260500-
NORTHEAST NORTH DAKOTA

CITY           SKY/WX    TMP DP  RH WIND       PRES   REMARKS
GRAND FORKS    CLOUDY    34  27  75 NE22      29.90S
GRND FRKS AFB  CLOUDY    33  26  76 NE20      29.91S
DEVILS LAKE    FAIR      33  27  78 NE12      29.93S
$$

NDZ022-023-025-028>030-036>039-047>053-260500-
SOUTHEAST NORTH DAKOTA

CITY           SKY/WX    TMP DP  RH WIND       PRES   REMARKS
FARGO          CLOUDY    34  28  79 N17G26    29.82S
JAMESTOWN      CLOUDY    32  27  81 N20       29.85S
$$




USA.gov is the U.S. government's official web portal to all federal, state and local government web resources and services.